sat.trackr.live / text

‹ back to catalog

STARLINK-5868

NORAD 56483 · 2023-064AM

PAYLOAD ACTIVE UNKNOWN

§ Identity

Operator
Country
US
Launch date
2023-05-10
Launch site
AFWTR
Launch vehicle
Mass (kg)
RCS (m²)

Purposes: comms

External: N2YO · Heavens-Above · Gunter

§ Orbital elements

Epoch: 2026-09-20T22:00:03.000096Z

Period
95.66 min
Inclination
70.0017°
Eccentricity
0.0002839
Mean motion
15.05387948 rev/d
Perigee alt
548.3 km
Apogee alt
552.3 km
Semi-major
6,928.5 km
B*
-2.8648e-4
RAAN
352.0635°
Arg perigee
308.2937°
Mean anomaly
149.2712°
Rev number
577

§ Raw data

STARLINK-58681 56483U 23064AM  26263.91670139 -.00004213  00000+0 -28648-3 0  99982 56483  70.0017 352.0635 0002839 308.2937 149.2712 15.05387948  5776

JSON: /api/v1/satellites/56483 · /tle

For live sub-satellite position, see the globe view (requires WebGL).

§ Visibility from observer

Set your observer location to see the next 7 days of passes ≥ 10°. The values pass through the URL so the page stays shareable.

No JS? Fill the form by hand. The geolocation button needs JavaScript.